Погода в Алор-Сетаре

Малайзия     6°07′02″N   100°22′11″E
темп.,
°C
ветер,
м/с
пор.,
м/с
влажн.,
%
обл.,
%
осадки,
мм/ч
давл.,
гПа
погр.,
м
7 марта, вс
вс723:00+27св71079100 0.1 1012589
02:00+26св7981100 0.1 1012479
05:00+26св568388 0.0 1010380
08:00+25всв448672 0.0 1011276
11:00+27св227711 0.0 1013339
14:00+29зюз446649 0.0 1011378
17:00+29зюз556919 0.0 1008399
20:00+29зсз457058 1.1 1010440
8 марта, пн
пн823:00+28св4472100 0.3 1013344
02:00+26всв4480100 0.3 1012220
05:00+26в4482100 0.0 1011247
08:00+25в4483100 0.0 1012224
11:00+27в2270100 0.0 1013346
14:00+29зюз5467100 0.0 1011400
17:00+28зюз5672100 0.0 1008355
20:00+29сз5671100 0.0 1010834
9 марта, вт
вт923:00+27св8974100 0.0 1013588
02:00+26всв7879100 0.0 1012414
05:00+25всв558262 0.0 1010281
08:00+24всв448339 0.0 1012234
11:00+27всв34670 0.0 1014342
14:00+30юз44540 0.0 1011406
17:00+29зюз54600 0.0 1009388
20:00+29зюз226816 0.0 1010210
10 марта, ср
ср1023:00+28всв366469 0.0 1013663
02:00+26св567164 0.0 1012326
05:00+25всв44784 0.0 1011213
08:00+24всв45792 0.0 1012219
11:00+27всв44660 0.0 1014355
14:00+30з34540 0.0 1011358
17:00+30зюз556123 0.0 1008551
20:00+29зсз246912 0.0 1010297
11 марта, чт
чт1123:00+27св812710 0.0 1012688
02:00+26всв67760 0.0 1011375
05:00+25всв447911 0.0 1010217
08:00+25всв448044 0.0 1012220
11:00+27всв33672 0.0 1013339
14:00+30зюз435916 0.0 1010360
17:00+29зюз567092 0.0 1008350
20:00+29зюз337182 0.8 1009232